Regional Weather Roundup
Issued by NWS

Home | Current Version | Previous Version | Graphics & Text | Print | Product List | Glossary On
Versions: 1 2 3 4 5 6 7 8 9 10 11 12 13 14 15 16 17 18 19 20 21 22 23 24 25 26 27 28 29 30 31 32 33 34 35 36 37 38 39 40 41 42 43 44 45 46 47 48 49 50
000
ASUS43 KTOP 291859
RWRKS

WEATHER ROUNDUP FOR KANSAS
NATIONAL WEATHER SERVICE GOODLAND KS
200 PM CDT SUN MAR 29 2015

NOTE:  "FAIR" INDICATES FEW OR NO CLOUDS BELOW 12,000 FEET WITH NO
SIGNIFICANT WEATHER AND/OR OBSTRUCTIONS TO VISIBILITY.

KSZ001>006-013>018-027>032-041>047-292000-
NORTHWEST KANSAS

CITY           SKY/WX    TMP DP  RH WIND       PRES   REMARKS
GOODLAND       SUNNY     62  26  25 N24G32    30.22F
HAYS           SUNNY     68  28  22 N21G37    30.14S
HILL CITY      SUNNY     66  25  21 N26G37    30.18R
RUSSELL        MOSUNNY   69  29  22 N28G38    30.11S
$$

KSZ061>065-074>080-084>089-292000-
SOUTHWEST KANSAS

CITY           SKY/WX    TMP DP  RH WIND       PRES   REMARKS
DODGE CITY     MOSUNNY   69  26  20 N28G37    30.16R
ELKHART          N/A     67  25  20 N17         N/A
GARDEN CITY    MOSUNNY   67  25  20 N30G39    30.17F
GREAT BEND     SUNNY     70  32  24 N23G31    30.12S
LIBERAL        MOSUNNY   68  28  22 N21G28    30.21S
$$

KSZ066>073-081>083-090>101-292000-
SOUTHEAST KANSAS

CITY           SKY/WX    TMP DP  RH WIND       PRES   REMARKS
CHANUTE        CLOUDY    56  43  61 SW8       30.05R
COFFEYVILLE    CLOUDY    58  41  53 CALM      30.05S
HUTCHINSON     PTSUNNY   73  30  20 N20G26    30.07R
MEDICINE LODGE   N/A     70  34  26 N16G29    30.08R
NEWTON         PTSUNNY   66  30  26 N17G23    30.09R
PARSONS        CLOUDY    57  43  59 VRB5      30.06R
WICHITA INTL   PTSUNNY   70  30  22 N22G29    30.06R
WICHITA JABRA  PTSUNNY   68  31  25 N21G35    30.06R
WINFIELD       CLOUDY    71  46  40 N9G22     30.04S
$$

KSZ007>012-019>026-033>040-048>060-102>105-292000-
NORTHEAST KANSAS

CITY           SKY/WX    TMP DP  RH WIND       PRES   REMARKS
CONCORDIA      SUNNY     68  37  32 NW20G29   30.07S
EMPORIA        PTSUNNY   66  31  27 N15G28    30.02R
LAWRENCE       PTSUNNY   66  40  38 NW20G26   30.00S
OLATHE IND     MOSUNNY   62  41  46 NW13      30.00F
OLATHE EXE     MOSUNNY   60  45  57 VRB3      29.98F
SALINA         MOSUNNY   72  34  24 NW23G35   30.07R
TOPEKA BILLARD PTSUNNY   69  40  34 N13G25    30.00F
TOPEKA FORBES  CLOUDY    67  39  35 NW16G26   30.01R
$$


USA.gov is the U.S. government's official web portal to all federal, state and local government web resources and services.